CAPE
459 492 654 547 574 972 1357 1698 1773 1857 1811 1648 1408 1480 1292 837 1267 958 1160 2322 2138 2250 2345 2312 2237 2623 2600 2173 2050 1915 1647 1447 1076 1085 1263 1813 2192 2273 1873 1332 1279 1655 1568
502 287 509 613 1006 1376 1649 1770 1646 1906 1663 1068 1113 1552 1261 811 1297 1479 1149 1873 1918 2204 2278 2259 1981 2182 2595 2572 2181 2294 1862 1644 1542 1508 1567 1386 1540 1519 1425 1328 1216 1327 1367
1195 958 783 1072 1219 1861 2149 1733 1738 1552 1368 874 837 573 717 773 731 1241 1201 1227 1632 2110 2071 2048 2274 2797 2572 2282 2152 2212 2135 1760 1615 1565 1250 1229 1365 1378 1336 1321 1290 1353 1424
1735 2040 1242 1085 1491 1625 1416 1137 1234 1172 1210 1002 742 611 631 672 1113 1013 1051 1127 877 877 1776 2298 2774 2845 2356 2058 1836 2323 1897 1675 1480 1301 1159 1266 1399 1231 1232 1355 1398 1433 1353
1907 1664 1183 1052 1712 1661 1331 998 1002 1548 1385 795 461 432 709 674 740 566 1016 1213 1153 1116 949 1886 1797 1185 1363 2125 1526 2624 2105 1979 1707 1075 1329 898 1366 1247 1419 1411 1413 1407 1281
1775 1709 834 1403 1676 1488 1125 995 1695 1694 1789 1729 662 367 573 452 597 699 820 831 1081 1415 1211 1570 1915 1769 1456 1248 2479 2726 2475 2163 1644 1027 1184 647 990 1120 1171 1132 1140 1226 1266
1688 2242 1039 1834 1957 1804 2146 1486 1371 1255 918 1482 1581 572 584 452 567 852 1106 935 929 1085 1249 1569 2116 1369 1888 1474 3027 2965 1834 1838 1387 1038 888 775 888 909 984 908 857 844 971
1431 1679 1681 1493 1712 1584 2311 2292 2091 1227 899 1503 1236 1252 709 473 581 693 985 1123 1454 1364 1336 1409 1703 2411 1597 2056 2428 2817 2445 2106 1357 1176 1001 779 830 813 713 590 602 681 724
1528 1603 1775 2042 1956 2236 1577 1662 1610 1790 941 719 1672 1372 735 300 470 563 1088 1031 1633 1723 1805 1900 1869 1804 2036 2278 2098 1832 1634 1778 1521 1397 1061 812 750 777 651 523 425 405 450
1650 1400 1529 2033 2352 1488 1630 1489 1795 2002 1836 683 551 780 1448 1651 1007 574 440 770 905 1120 1974 1360 1420 1841 2627 2250 1631 1663 980 874 1883 1622 1202 890 748 791 759 532 378 339 338
1821 1260 1504 1725 2169 1859 1605 1833 1802 2201 1479 1291 731 333 415 550 1273 1264 717 653 409 288 627 1394 1394 1431 2215 2174 2212 973 1133 751 1190 1862 1746 990 798 811 770 544 407 126 14
1462 1788 1585 1917 1985 1994 1951 1999 2100 2037 1921 1595 1161 868 485 207 465 468 500 342 476 427 339 906 1382 1393 1797 2225 1389 356 1089 655 734 1181 1348 1272 850 727 633 461 189 11 6
792 1064 2079 2062 1853 2206 1870 1948 2027 1951 1954 1671 1648 828 490 546 495 461 492 376 233 300 168 236 1241 1641 1706 2219 2313 1258 926 532 294 202 295 512 628 539 340 161 20 2 1
853 1110 2017 2213 2192 2003 2159 2022 2118 1940 1587 1725 1951 2070 1201 506 517 644 873 628 391 91 91 582 591 1142 1713 2161 1338 421 1134 143 19 0 7 47 87 115 49 0 0 0 0
1146 1605 2000 2067 2055 2163 2302 2265 2708 1633 2097 1886 1825 1928 1837 1244 507 720 1059 1008 688 419 154 217 632 1781 1429 1908 1408 1773 2102 1 0 0 0 0 0 0 0 0 0 0 0
1642 1759 2171 2150 2087 2141 2422 2601 1967 1818 2346 1873 1472 1886 2081 1439 1242 1038 988 1247 1089 1554 1050 629 686 1019 1548 1419 1445 1836 1291 109 0 0 0 0 0 0 0 0 0 0 0
1498 2084 2192 2238 2239 2398 2474 2671 2731 2204 1898 2408 2130 1679 1824 2349 1576 1185 1150 1130 1253 1346 1373 1009 1617 1253 2344 2141 1609 1943 1220 1428 139 0 0 0 0 0 0 0 0 0 0
1818 1795 1867 2000 2168 2107 2200 2330 2250 1741 1786 1964 2101 2386 1948 1570 2223 1951 1427 1853 1551 1187 1168 2428 1965 1271 1740 1750 2104 2136 1452 1011 700 0 0 0 0 0 0 0 0 0 0
2105 1851 2009 2189 2265 2198 2194 2246 2396 2332 2052 1720 1603 1827 1959 1933 2678 1622 1673 1469 1485 1656 1539 1396 1262 1265 2206 1501 1806 999 952 621 34 0 0 0 0 0 0 0 0 0 0
2426 2295 2189 2227 2204 2323 2361 2398 2373 2215 2057 1771 1809 1922 2005 2065 2217 2305 2722 2141 1868 1596 1787 1359 1093 745 1761 1819 2570 743 72 33 8 0 0 0 0 0 0 0 0 0 0
2548 2611 2483 2481 2414 2205 2018 2407 2210 1865 1651 1524 1414 1745 1953 1809 1454 1692 2904 3002 2910 2149 1190 800 764 661 906 2188 1965 1093 663 9 14 25 16 2 0 0 0 0 0 0 0
3060 3076 3047 2878 2440 2224 0 0 0 837 1091 1211 1202 1302 1396 989 819 764 736 501 771 2656 2556 1014 620 850 2039 1606 3184 2082 462 11 6 12 14 1 0 0 0 0 0 0 0
3208 3138 2689 2389 1956 855 0 0 0 8 256 717 1079 1170 1166 615 361 911 491 203 123 48 78 2321 2543 2011 2411 2597 2842 2367 772 363 187 10 5 6 4 10 0 0 0 0 0
2191 1972 1286 453 263 86 0 0 0 0 0 0 3 74 268 562 1263 925 901 1079 1473 1687 1449 915 1392 1905 2228 2237 2875 3377 2013 1377 569 12 3 4 4 14 6 0 0 0 0
108 4 0 0 0 0 0 0 0 0 0 0 0 0 0 3 37 157 528 1244 1660 2439 1793 1069 1038 53 13 3 636 3278 2779 292 7 12 16 13 12 20 33 11 4 0 0
0 0 0 0 0 0 0 0 0 0 0 0 0 0 0 0 0 0 0 769 988 1719 2135 1974 912 477 128 745 151 1469 1534 324 9 12 13 5 8 10 22 22 9 4 0
CIN
0 0 0 0 -3 -2 0 0 0 -2 -1 0 0 0 0 -1 -3 0 0 -134 -145 -111 -80 -58 -36 -5 -3 -7 -5 -2 -3 -1 0 -4 -4 0 0 0 -3 -7 -7 -4 -6
-1 -1 -5 0 0 0 0 -1 -5 -1 -2 0 0 -1 -1 -1 -5 -13 0 -17 -148 -121 -88 -60 -48 -24 -3 -3 -4 -2 -4 -7 -9 -7 -3 -5 -5 -7 -11 -8 -12 -10 -11
-3 0 0 0 0 -1 -8 -2 -3 -3 0 0 -1 -2 0 -2 -1 -7 -7 -3 -22 -145 -113 -94 -59 -14 -9 -15 -16 -7 -6 -13 -16 -16 -13 -15 -12 -13 -16 -16 -16 -9 -6
0 -5 0 0 -1 -7 0 0 0 0 0 0 0 0 0 -1 -3 -5 -5 -10 -13 -9 -113 -104 -66 -39 -42 -44 -51 -15 -18 -22 -22 -19 -18 -14 -9 -14 -23 -21 -13 -10 -9
0 0 0 -1 -11 0 0 0 0 0 0 0 0 0 0 0 -2 -1 -9 -12 -14 -20 -4 -136 -129 -140 -115 -47 -62 -7 -14 -21 -20 -34 -16 -33 -19 -22 -15 -11 -8 -5 -6
0 -2 -3 -7 -5 0 0 -1 -9 0 -1 0 0 -1 0 -1 -3 -1 -2 -6 -14 -15 -6 -17 -30 -62 -120 -96 -27 -2 -6 -18 -32 -41 -27 -47 -26 -22 -23 -25 -22 -15 -9
-2 -3 0 -3 -3 0 -2 -5 -2 -1 0 0 0 0 -1 -2 0 0 0 -5 -10 -12 -8 -7 0 -41 -41 -74 -20 -4 -25 -25 -40 -51 -56 -51 -32 -24 -21 -29 -34 -33 -20
-9 -1 -1 -1 -3 0 0 0 -1 0 0 -1 0 0 0 -1 0 0 0 0 -2 -1 -2 -10 -21 -13 -46 -90 -6 -20 -18 -28 -41 -40 -47 -50 -35 -28 -25 -27 -25 -23 -23
-5 -8 -2 -1 -1 -1 0 -1 -1 -2 -1 -1 -3 0 0 -4 0 0 -2 0 -2 0 0 -5 -13 -10 -46 -2 -25 -27 -55 -41 -37 -29 -36 -39 -35 -23 -23 -28 -29 -26 -22
-5 0 -2 0 0 0 -1 0 0 0 -2 0 0 -1 -1 -1 0 0 -1 0 0 -1 0 0 -1 -2 -8 -1 -74 -75 -108 -89 -27 -22 -28 -26 -25 -17 -10 -13 -20 -21 -15
-5 -4 -4 -1 0 0 -1 -3 0 -1 0 0 0 0 -1 0 0 0 0 0 0 -1 0 0 0 0 0 0 0 -124 -98 -97 -48 -13 -7 -27 -20 -4 0 -1 -6 -23 -46
0 -4 -6 -7 -1 0 0 0 0 0 0 -1 -1 0 -2 -2 0 0 0 0 0 0 0 -1 0 0 0 0 -41 -223 -106 -119 -86 -38 -15 -3 -5 0 0 0 -8 -73 -21
0 0 -8 -10 -4 -5 -1 0 0 0 0 0 0 0 0 0 0 -1 0 -1 -2 0 0 -1 0 0 0 0 -10 -61 -107 -128 -135 -116 -92 -55 -24 -8 -8 -19 -69 -14 0
0 0 -1 -4 -13 -5 -2 -1 0 0 0 0 0 0 0 0 0 0 0 0 -1 -7 -2 -2 -1 0 0 0 -98 -120 -34 -170 -232 -25 -187 -143 -97 -63 -61 0 0 0 0
0 0 0 0 -3 -2 0 0 0 0 0 0 0 0 0 0 0 0 0 0 0 -2 -4 -2 0 -5 0 0 -58 -1 -1 -1 0 0 0 0 0 0 0 0 0 0 0
0 0 0 0 -2 -1 0 0 -3 0 0 0 0 0 0 0 0 0 0 0 0 -1 0 0 0 -1 0 0 -60 -3 -63 -183 0 0 0 0 0 0 0 0 0 0 0
-3 -1 0 0 0 0 0 0 -1 -1 0 0 0 -1 0 0 0 0 0 0 0 0 0 0 -31 -1 -1 0 -1 0 -33 0 -70 0 0 0 0 0 0 0 0 0 0
-5 -6 -9 -6 -1 0 0 0 0 0 0 0 0 0 0 0 0 0 0 0 0 0 0 0 0 0 0 -1 0 0 0 0 -12 0 0 0 0 0 0 0 0 0 0
-7 0 0 -1 0 -1 0 0 0 0 0 0 0 0 0 0 0 0 0 0 0 0 0 0 0 0 0 -1 0 -11 -11 -25 -119 0 0 0 0 0 0 0 0 0 0
-3 -1 0 0 0 0 0 0 0 0 0 0 0 0 0 0 0 0 0 0 0 0 0 0 0 0 -1 0 0 -22 -123 -152 0 0 0 0 0 0 0 0 0 0 0
-8 -1 0 0 0 0 0 0 0 0 0 0 -1 0 0 -3 -4 -5 0 0 0 0 0 0 0 0 0 -1 0 -4 -14 0 0 -17 0 0 0 0 0 0 0 0 0
-4 0 0 0 0 0 0 0 0 -35 -13 -3 -4 -1 0 -9 -26 -54 -62 -90 -45 0 0 0 0 0 0 0 0 0 -50 0 0 0 0 0 -1 0 0 0 0 0 0
-3 0 0 -1 -4 -52 0 0 0 -15 -80 -41 -9 -2 -1 -4 -14 -4 -87 -167 -166 -202 -178 -8 0 0 0 0 0 0 -27 -55 -80 -14 0 0 -6 -1 -2 0 0 0 0
-17 -19 -39 -134 -162 -63 0 0 0 0 0 0 0 -36 -51 -27 0 -1 0 0 0 0 -16 -28 -2 0 0 0 0 0 0 -1 -12 -23 -2 0 -1 -1 -2 0 0 0 0
-236 -48 0 0 0 0 0 0 0 0 0 0 0 0 0 0 -14 -43 -6 0 0 0 -4 -10 -23 -23 -401 -67 -249 0 0 -23 0 0 0 0 0 0 0 0 0 0 0
0 0 0 0 0 0 0 0 0 0 0 0 0 0 0 0 0 0 0 -1 0 0 0 0 -39 -98 -259 -49 -197 -13 -8 -22 -88 0 0 0 0 0 0 0 0 0 0
Wind_Speed
3 5 4 3 1 1 1 1 2 3 4 6 5 5 5 3 5 2 1 8 9 10 11 10 11 11 10 8 7 8 7 11 14 16 15 14 11 11 9 9 9 9 9
4 5 5 4 3 1 2 1 2 3 5 6 4 5 5 2 4 2 2 6 8 9 10 11 11 11 10 10 8 9 7 5 7 7 8 8 8 7 7 7 8 7 8
5 1 3 4 2 2 3 2 3 3 4 4 1 0 4 2 1 2 3 4 8 11 10 11 10 10 10 9 8 8 6 4 4 3 4 4 5 5 6 6 6 6 6
4 4 4 3 2 2 2 1 2 4 3 3 2 3 3 4 3 4 4 3 2 4 10 11 10 10 10 9 8 7 4 4 4 4 3 3 2 3 5 5 6 6 6
5 4 2 2 3 1 2 3 1 3 4 4 5 3 2 4 3 3 5 4 1 5 2 11 10 7 10 9 8 6 6 7 7 5 3 3 3 3 3 4 5 6 7
5 5 4 3 4 2 1 1 3 3 4 4 6 5 4 4 3 5 5 4 1 5 4 2 6 5 9 8 7 9 8 9 8 7 5 4 4 4 4 3 4 5 6
6 5 3 4 3 3 3 2 3 2 4 4 8 3 1 1 1 2 4 2 2 3 2 4 3 3 4 2 6 9 11 11 9 7 6 6 5 3 3 4 4 4 5
6 6 3 4 2 3 2 3 3 4 2 4 6 7 3 3 4 4 3 2 5 3 3 5 1 5 5 4 7 9 10 10 9 8 8 6 5 5 4 3 3 3 3
8 8 6 5 3 5 5 3 3 2 5 2 2 5 6 6 7 4 4 3 3 3 4 3 5 5 7 6 7 7 7 7 8 8 8 7 7 6 5 4 3 1 1
8 9 8 7 6 4 1 4 5 5 3 3 4 0 2 3 5 6 4 4 5 2 4 4 3 5 7 6 4 8 11 9 8 8 9 8 7 6 5 4 3 2 2
8 9 8 8 8 7 6 5 5 4 3 5 3 4 4 6 5 3 8 5 4 4 3 2 4 2 4 5 5 8 9 9 8 8 9 9 8 7 6 5 5 4 3
9 10 10 9 8 8 7 7 7 7 7 5 6 5 5 5 5 5 6 7 8 6 4 2 1 1 3 5 4 9 8 9 8 8 8 7 7 6 5 4 4 3 2
7 10 10 10 9 9 8 8 7 8 7 8 5 7 5 6 6 6 6 7 8 6 5 6 2 0 3 3 7 2 10 8 6 6 7 7 6 6 6 5 5 4 4
9 9 9 10 11 10 9 8 8 8 9 7 8 7 7 6 6 6 6 7 7 7 6 5 3 2 2 3 9 3 9 8 8 8 8 8 8 7 7 8 7 7 7
7 7 9 10 10 10 9 9 6 10 8 7 8 8 8 8 6 7 6 7 7 8 7 4 3 6 1 4 6 6 5 9 9 9 10 9 9 10 9 9 9 9 9
10 9 9 10 10 10 10 10 9 11 10 9 9 9 9 9 8 6 7 7 6 8 8 7 3 1 1 6 8 5 8 10 9 9 9 11 11 10 10 10 10 10 10
12 11 11 10 10 10 10 9 9 9 10 10 11 11 10 11 9 9 8 8 7 7 9 9 6 3 4 6 3 4 8 4 8 8 10 9 11 11 11 11 10 10 10
13 12 12 12 11 11 11 11 12 12 12 12 12 11 12 10 11 11 9 10 8 7 9 10 7 8 8 3 5 5 4 4 5 9 8 9 10 10 10 10 10 10 9
14 14 13 13 12 12 13 13 12 12 13 13 13 14 14 13 11 12 11 9 10 10 9 10 9 8 5 5 6 2 3 5 5 11 9 9 10 10 11 11 10 9 9
13 13 12 13 13 13 13 12 13 13 13 14 14 14 14 14 14 14 12 12 11 11 9 9 11 10 7 5 5 7 4 4 6 8 6 9 12 12 11 10 11 11 10
12 12 12 13 12 12 11 13 13 12 13 15 15 14 15 15 13 12 9 12 11 11 11 11 11 10 8 6 9 6 7 7 5 4 6 8 8 9 9 11 13 14 12
11 10 11 10 10 9 9 7 6 12 13 14 14 15 15 15 15 14 15 14 14 11 14 12 11 12 9 9 9 7 7 4 4 5 8 8 7 8 9 8 14 15 14
8 8 7 7 5 2 8 9 8 9 12 13 15 15 15 14 14 17 17 18 18 18 18 13 14 12 11 10 8 9 11 10 8 9 10 8 4 5 4 8 15 15 14
5 3 3 3 4 2 7 7 9 10 12 15 16 17 15 15 17 16 16 17 17 17 17 14 18 16 14 12 10 10 12 11 1 6 8 6 7 5 4 6 11 15 13
5 5 3 3 3 2 5 4 8 9 12 14 14 16 17 18 19 12 13 17 18 14 11 14 15 1 2 3 6 7 8 6 2 4 8 4 6 7 4 5 6 9 13
5 5 4 2 5 5 9 7 7 9 12 11 13 14 16 19 19 12 9 14 17 16 13 11 8 9 8 7 4 8 6 9 5 4 7 5 9 6 5 4 4 4 5
Wind_Direction
159 184 142 175 192 162 85 295 322 346 320 272 307 324 316 29 359 326 3 166 216 227 236 249 263 266 282 293 295 283 249 230 234 247 251 256 258 257 252 246 239 237 236
169 158 165 179 163 256 79 350 10 322 306 320 324 315 308 331 83 322 336 152 203 236 241 244 251 263 276 292 290 288 281 257 225 233 245 245 250 241 225 231 231 240 244
165 198 188 201 152 125 239 219 256 237 277 307 24 351 272 284 0 341 270 305 159 201 234 247 247 256 267 278 285 278 279 244 252 257 246 270 258 232 210 210 227 246 253
194 200 191 177 83 223 240 305 322 301 291 306 336 304 326 292 4 282 263 292 240 280 192 230 247 260 270 269 275 255 224 188 187 195 248 251 243 213 194 195 217 232 243
170 230 218 152 222 214 250 302 40 322 324 323 260 259 295 298 266 332 317 311 323 253 255 172 210 232 247 249 255 228 209 173 173 180 203 210 156 135 163 196 229 244 245
181 207 147 160 242 227 224 332 334 4 313 350 323 319 305 321 285 310 339 306 123 210 220 254 190 206 207 213 220 201 194 178 177 176 167 172 171 166 171 196 224 230 233
195 196 191 188 232 255 354 254 253 203 301 6 273 339 263 140 239 358 348 9 38 277 10 159 229 166 123 236 213 188 188 180 178 174 166 171 180 182 181 182 187 200 216
209 209 235 197 206 209 233 289 329 310 250 57 335 301 317 169 97 41 24 336 16 327 297 204 205 161 170 205 180 186 186 177 176 175 172 174 184 182 176 178 186 181 190
213 220 206 258 200 269 184 225 230 338 343 320 7 332 329 5 327 89 145 46 340 352 351 346 221 160 166 197 147 169 187 186 176 175 173 175 178 181 182 176 171 176 180
213 209 210 214 229 264 293 225 225 301 278 307 331 124 317 10 340 327 296 128 293 345 33 349 136 158 156 182 79 82 163 184 179 177 173 177 182 184 182 171 165 155 130
214 215 207 214 219 231 203 255 245 241 269 288 238 313 306 280 187 249 296 348 311 355 14 315 18 155 166 210 143 118 167 179 182 176 174 174 176 178 174 167 153 140 144
194 211 212 217 222 232 232 232 229 234 256 279 292 267 258 269 275 269 270 283 305 294 6 293 91 19 141 153 101 122 172 178 180 169 163 164 169 173 169 161 139 130 130
213 194 213 217 218 223 238 238 225 257 240 256 246 280 271 261 267 275 279 276 280 288 284 301 129 246 173 202 102 205 160 169 158 143 147 145 139 145 149 140 128 113 96
220 220 200 216 218 228 227 232 235 235 238 241 245 259 289 267 260 256 271 287 285 276 251 238 229 226 164 187 85 186 145 150 147 149 151 152 145 134 127 126 120 111 98
243 235 229 222 220 219 227 237 241 259 252 260 264 254 247 269 256 259 251 266 276 284 279 214 247 112 260 185 118 228 124 138 146 151 155 148 147 139 133 130 125 115 107
228 248 229 224 225 224 228 232 236 241 241 248 244 249 253 269 261 248 261 280 285 299 290 288 246 101 356 300 116 255 86 148 157 159 148 147 148 144 140 135 131 128 122
225 227 237 238 235 235 235 235 243 272 264 255 263 255 252 246 260 253 242 238 250 237 257 274 354 261 191 252 204 199 165 167 149 158 151 155 150 146 142 137 133 129 126
225 228 232 235 243 244 243 239 241 258 253 248 250 244 253 250 229 247 265 261 266 260 253 247 271 277 264 216 240 193 203 147 177 145 151 150 148 139 135 130 131 129 117
223 229 225 232 235 241 243 244 249 253 255 259 260 258 256 252 246 252 240 243 233 219 228 250 258 244 256 229 141 171 159 152 85 130 133 136 136 137 136 136 134 124 116
220 226 233 236 237 240 244 247 257 253 255 257 256 256 255 255 251 240 241 242 243 256 242 244 252 254 219 237 199 181 169 167 156 177 157 135 156 144 141 136 137 133 126
216 227 230 236 239 243 245 243 244 249 256 260 262 256 252 252 257 260 248 234 247 236 242 245 247 252 245 186 207 180 209 167 169 173 161 165 169 164 154 173 145 145 135
211 221 231 233 236 240 46 38 309 268 268 265 261 259 255 245 240 232 243 254 262 242 250 261 251 244 239 224 221 187 156 157 182 193 178 188 191 184 170 176 135 142 139
208 215 231 240 236 134 54 31 350 276 276 274 273 272 264 256 242 251 229 224 235 242 244 255 252 253 257 234 243 189 190 194 204 164 187 181 173 175 150 104 130 141 139
185 175 178 206 244 169 64 5 326 281 269 264 260 260 260 269 273 261 249 246 240 233 225 232 241 248 246 248 233 216 203 211 214 152 169 165 157 138 117 117 141 142 136
141 138 167 190 240 242 127 259 286 292 270 268 268 267 265 261 254 257 265 260 255 246 232 220 233 185 351 308 273 222 220 167 129 167 187 122 144 111 107 104 115 112 107
144 157 153 108 87 291 182 232 291 297 288 280 274 265 253 258 271 275 266 247 250 248 246 235 213 229 227 237 237 242 188 188 159 162 174 124 146 142 137 121 112 111 102